Rochester/St. Mary's Hospita, MN
on Friday, December 20, 2013

Friday
Previous Day Next Day
Daily Summary
 ActualAverage (KRST)Record (KRST)
Temperature
Mean Temperature °F 18°F  
Max Temperature 20°F 26°F 48°F (1967)
Min Temperature 17°F 11°F -26°F (1983)
Degree Days
Heating Degree Days 46 47  
Month to date heating degree days 877  
Since 1 July heating degree days 2549  
Cooling Degree Days 0 0  
Month to date cooling degree days 0  
Year to date cooling degree days 585  
Moisture
Dew Point 13°F   
Average Humidity 78    
Maximum Humidity 84    
Minimum Humidity 73    
Precipitation
Precipitation 0.00 in 0.03 in 0.46 in (2010)
Month to date precipitation 0.87  
Year to date precipitation 32.66  
Snow
Snow 0.00 in 0.40 in 7.00 in (2008)
Month to date snowfall 8.4  
Since 1 July snowfall 15.3  
Snow Depth in   
Wind
Wind Speed 7 mph   
Max Wind Speed 14 mph   
Max Gust Speed 22 mph   
Visibility 10 miles   
Events     

Key: T is trace of precipitation, MM is missing value
Source: NWS Daily Summary
Time(CST)TemperatureDew PointHumidity Pressure Visibility Wind DirectionWind SpeedGust SpeedPrecipitationEvents Conditions
12:13 AM 20.5°F 14.7°F 78% 29.92 in 10.0 miles NNE 11.5 mph 16.1 mph N/A   Overcast
12:33 AM 20.3°F 14.0°F 77% 29.91 in 10.0 miles NNE 12.7 mph 21.9 mph N/A   Overcast
12:53 AM 20.7°F 14.0°F 75% 29.92 in 10.0 miles NE 8.1 mph - N/A   Overcast
1:13 AM 20.7°F 13.8°F 75% 29.92 in 10.0 miles NNE 10.4 mph 16.1 mph N/A   Overcast
1:33 AM 20.1°F 13.6°F 76% 29.91 in 4.0 miles NE 13.8 mph 19.6 mph N/A   Overcast
1:53 AM 19.9°F 14.2°F 78% 29.91 in 5.0 miles NNE 10.4 mph 17.3 mph N/A   Overcast
2:13 AM 19.6°F 14.5°F 81% 29.91 in 5.0 miles NNE 9.2 mph - N/A   Overcast
2:33 AM 19.2°F 14.0°F 80% 29.92 in 5.0 miles NNE 5.8 mph - N/A   Overcast
2:53 AM 19.0°F 14.5°F 83% 29.92 in 5.0 miles NNE 5.8 mph 17.3 mph N/A   Overcast
3:13 AM 18.1°F 14.0°F 84% 29.91 in 7.0 miles NNE 8.1 mph - N/A   Overcast
3:33 AM 17.8°F 13.5°F 83% 29.91 in 10.0 miles NNE 4.6 mph - N/A   Mostly Cloudy
3:53 AM 18.1°F 13.6°F 83% 29.91 in 10.0 miles NE 9.2 mph - N/A   Mostly Cloudy
4:13 AM 18.0°F 12.4°F 79% 29.91 in 10.0 miles NE 5.8 mph - N/A   Overcast
4:33 AM 18.1°F 12.9°F 80% 29.91 in 10.0 miles NE 8.1 mph - N/A   Overcast
4:53 AM 18.0°F 12.6°F 79% 29.91 in 10.0 miles NE 5.8 mph - N/A   Overcast
5:13 AM 17.6°F 12.6°F 81% 29.91 in 10.0 miles NNE 8.1 mph - N/A   Overcast
5:33 AM 17.4°F 12.2°F 80% 29.91 in 10.0 miles NNE 6.9 mph - N/A   Overcast
5:53 AM 17.8°F 12.6°F 80% 29.92 in 10.0 miles NNE 6.9 mph - N/A   Overcast
6:13 AM 17.8°F 12.2°F 79% 29.92 in 10.0 miles NE 4.6 mph - N/A   Overcast
6:33 AM 18.5°F 12.2°F 76% 29.92 in 10.0 miles NNE 8.1 mph - N/A   Overcast
6:53 AM 18.3°F 12.4°F 78% 29.92 in 10.0 miles NNE 6.9 mph - N/A   Overcast
7:14 AM 18.1°F 12.2°F 78% 29.91 in 10.0 miles NNE 5.8 mph - N/A   Overcast
7:33 AM 18.0°F 12.0°F 78% 29.92 in 10.0 miles NNE 6.9 mph - N/A   Overcast
7:53 AM 18.0°F 12.2°F 78% 29.92 in 10.0 miles North 6.9 mph - N/A   Overcast
8:14 AM 18.0°F 12.6°F 79% 29.92 in 10.0 miles North 5.8 mph - N/A   Overcast
8:33 AM 17.6°F 12.2°F 79% 29.93 in 10.0 miles North 5.8 mph - N/A   Overcast
8:53 AM 17.8°F 12.4°F 79% 29.92 in 10.0 miles NNE 3.5 mph - N/A   Overcast
9:14 AM 17.6°F 12.6°F 81% 29.92 in 10.0 miles North 3.5 mph - N/A   Overcast
9:33 AM 18.0°F 12.6°F 79% 29.92 in 10.0 miles North 3.5 mph - N/A   Overcast
9:53 AM 18.3°F 12.6°F 78% 29.92 in 10.0 miles North 5.8 mph - N/A   Overcast
10:13 AM 18.1°F 12.2°F 78% 29.93 in 10.0 miles NNE 4.6 mph - N/A   Overcast
10:33 AM 18.7°F 12.2°F 76% 29.92 in 10.0 miles NE 5.8 mph - N/A   Overcast
10:53 AM 18.9°F 12.6°F 76% 29.91 in 10.0 miles North 5.8 mph - N/A   Overcast
11:14 AM 19.2°F 12.9°F 76% 29.91 in 10.0 miles NNE 4.6 mph - N/A   Overcast
11:33 AM 19.4°F 12.9°F 76% 29.90 in 10.0 miles North 5.8 mph - N/A   Overcast
11:53 AM 19.4°F 13.1°F 76% 29.90 in 10.0 miles NNE 3.5 mph - N/A   Overcast
12:13 PM 19.4°F 12.9°F 76% 29.89 in 10.0 miles North 3.5 mph - N/A   Overcast
12:33 PM 19.6°F 13.1°F 76% 29.87 in 10.0 miles North 5.8 mph - N/A   Overcast
12:53 PM 19.4°F 12.7°F 75% 29.87 in 10.0 miles North 4.6 mph - N/A   Overcast
1:13 PM 20.1°F 13.1°F 74% 29.86 in 10.0 miles NNE 5.8 mph - N/A   Overcast
1:33 PM 20.3°F 13.3°F 74% 29.86 in 10.0 miles North 4.6 mph - N/A   Overcast
1:53 PM 20.1°F 13.3°F 75% 29.85 in 10.0 miles NNE 4.6 mph - N/A   Overcast
2:13 PM 20.5°F 13.1°F 73% 29.85 in 10.0 miles North 4.6 mph - N/A   Overcast
2:33 PM 20.3°F 13.3°F 74% 29.85 in 10.0 miles NNE 3.5 mph - N/A   Overcast
2:53 PM 20.3°F 13.1°F 74% 29.85 in 10.0 miles North 5.8 mph - N/A   Overcast
3:13 PM 20.3°F 13.5°F 75% 29.85 in 10.0 miles NNW 4.6 mph - N/A   Overcast
3:33 PM 20.5°F 13.6°F 75% 29.85 in 10.0 miles North 3.5 mph - N/A   Overcast
3:53 PM 20.7°F 13.5°F 74% 29.85 in 10.0 miles North 4.6 mph - N/A   Overcast
4:13 PM 20.3°F 13.1°F 74% 29.85 in 10.0 miles North 4.6 mph - N/A   Overcast
4:33 PM 20.3°F 13.5°F 75% 29.86 in 10.0 miles North 3.5 mph - N/A   Overcast
4:53 PM 19.6°F 12.9°F 75% 29.86 in 10.0 miles North 5.8 mph - N/A   Overcast
5:13 PM 19.4°F 12.9°F 76% 29.86 in 10.0 miles North 4.6 mph - N/A   Overcast
5:33 PM 19.4°F 13.1°F 76% 29.86 in 10.0 miles Calm Calm - N/A   Overcast
5:53 PM 19.8°F 13.5°F 77% 29.86 in 10.0 miles North 5.8 mph - N/A   Overcast
6:13 PM 19.8°F 13.3°F 76% 29.87 in 10.0 miles NNE 4.6 mph - N/A   Overcast
6:33 PM 19.9°F 13.5°F 76% 29.86 in 10.0 miles Calm Calm - N/A   Overcast
6:54 PM 19.8°F 13.5°F 77% 29.87 in 10.0 miles North 3.5 mph - N/A   Overcast
7:13 PM 19.4°F 13.1°F 76% 29.87 in 10.0 miles NNE 4.6 mph - N/A   Overcast
7:33 PM 19.4°F 13.1°F 76% 29.85 in 10.0 miles NNE 5.8 mph - N/A   Overcast
7:53 PM 19.4°F 13.1°F 76% 29.86 in 10.0 miles Calm Calm - N/A   Overcast
8:13 PM 19.4°F 13.3°F 77% 29.85 in 10.0 miles Calm Calm - N/A   Overcast
8:33 PM 19.0°F 13.5°F 79% 29.84 in 10.0 miles ESE 3.5 mph - N/A   Overcast
8:54 PM 19.6°F 13.8°F 78% 29.84 in 10.0 miles Calm Calm - N/A   Overcast
9:13 PM 19.2°F 13.6°F 79% 29.83 in 10.0 miles Calm Calm - N/A   Overcast
9:33 PM 19.0°F 13.5°F 79% 29.83 in 10.0 miles Calm Calm - N/A   Overcast
9:53 PM 19.2°F 13.8°F 80% 29.82 in 10.0 miles Calm Calm - N/A   Overcast
10:13 PM 19.0°F 13.6°F 79% 29.82 in 10.0 miles Calm Calm - N/A   Overcast
10:33 PM 19.2°F 14.2°F 81% 29.83 in 10.0 miles Calm Calm - N/A   Overcast
10:53 PM 19.4°F 14.4°F 81% 29.82 in 10.0 miles Calm Calm - N/A   Overcast
11:13 PM 19.4°F 14.7°F 82% 29.82 in 10.0 miles Calm Calm - N/A   Overcast
11:33 PM 19.4°F 15.3°F 84% 29.82 in 10.0 miles West 3.5 mph - N/A   Overcast
11:53 PM 18.9°F 14.5°F 83% 29.82 in 10.0 miles WNW 4.6 mph - N/A   Overcast
Astronomy
Sunrise:07:41 AM (CST) Moon Rise:08:01 PM (CST)12/20
Sunset:04:34 PM (CST) Moon Set:09:29 AM (CST)12/20
Moon Phase
Dec. 20 Dec. 25 Jan. 01 Jan. 08 Jan. 16

Copyright © 2016 The Weather Underground, Inc.